| time (UTC) | temp F | wind direction | speed MPH | gust MPH | rain 1hr in | rain 24hr in | rain mn in | humidity % | barometer mb |
| 20260904030041 | 82 | 115 | 0.0 | 0.0 | 0.00 | 0.85 | 0.07 | 88 | 1015.9 |
| 20260904025824 | 82 | 115 | 0.0 | 0.0 | 0.00 | 0.85 | 0.07 | 88 | 1016.1 |
| 20260904025321 | 83 | 115 | 0.0 | 0.0 | 0.00 | 0.85 | 0.07 | 88 | 1016.0 |
| 20260904024820 | 83 | 115 | 0.0 | 0.0 | 0.00 | 0.85 | 0.07 | 87 | 1016.0 |
| 20260904024534 | 82 | 115 | 0.0 | 0.0 | 0.00 | 0.85 | 0.07 | 87 | 1015.9 |
| 20260904024318 | 83 | 115 | 0.0 | 0.0 | 0.00 | 0.85 | 0.07 | 87 | 1016.1 |
| 20260904023832 | 83 | 115 | 0.0 | 0.0 | 0.00 | 0.85 | 0.07 | 86 | 1016.1 |
| 20260904023348 | 83 | 115 | 0.0 | 0.0 | 0.00 | 0.85 | 0.07 | 86 | 1016.0 |
| 20260904023056 | 83 | 115 | 0.0 | 0.0 | 0.00 | 0.85 | 0.07 | 86 | 1015.9 |
| 20260904022825 | 84 | 115 | 0.0 | 0.0 | 0.00 | 0.85 | 0.07 | 85 | 1016.0 |
| 20260904022341 | 84 | 115 | 0.0 | 0.0 | 0.00 | 0.85 | 0.07 | 85 | 1016.0 |
| 20260904021838 | 84 | 115 | 0.0 | 0.0 | 0.00 | 0.85 | 0.07 | 84 | 1016.0 |
| 20260904021519 | 84 | 115 | 0.0 | 0.0 | 0.00 | 0.85 | 0.07 | 84 | 1016.0 |
| 20260904021356 | 84 | 115 | 0.0 | 0.0 | 0.00 | 0.85 | 0.07 | 84 | 1016.1 |
| 20260904020832 | 85 | 115 | 0.0 | 0.0 | 0.00 | 0.85 | 0.07 | 83 | 1016.0 |
| 20260904020328 | 85 | 115 | 0.0 | 0.0 | 0.00 | 0.85 | 0.07 | 83 | 1016.0 |
| 20260904020043 | 85 | 115 | 0.0 | 0.0 | 0.00 | 0.85 | 0.07 | 83 | 1015.8 |
| 20260904015826 | 86 | 115 | 0.0 | 0.0 | 0.00 | 0.85 | 0.07 | 83 | 1015.9 |
| 20260904015324 | 86 | 115 | 0.0 | 3.0 | 0.00 | 0.85 | 0.07 | 83 | 1015.8 |
| 20260904014820 | 86 | 119 | 0.0 | 3.0 | 0.00 | 0.85 | 0.07 | 83 | 1015.8 |
| 20260904014524 | 85 | 148 | 0.0 | 2.0 | 0.00 | 0.85 | 0.07 | 83 | 1015.5 |
| 20260904014338 | 86 | 146 | 0.0 | 3.0 | 0.00 | 0.85 | 0.07 | 82 | 1015.7 |
| 20260904013817 | 86 | 148 | 1.0 | 3.0 | 0.00 | 0.85 | 0.07 | 82 | 1015.7 |
| 20260904013334 | 86 | 113 | 0.0 | 3.0 | 0.00 | 0.85 | 0.07 | 83 | 1015.6 |
| 20260904013050 | 86 | 113 | 0.0 | 3.0 | 0.00 | 0.85 | 0.07 | 82 | 1015.5 |
| 20260904012832 | 86 | 113 | 1.0 | 3.0 | 0.00 | 0.85 | 0.07 | 82 | 1015.6 |
| 20260904012328 | 86 | 129 | 2.0 | 3.0 | 0.00 | 0.85 | 0.07 | 82 | 1015.6 |
| 20260904011826 | 86 | 125 | 1.0 | 4.0 | 0.00 | 0.85 | 0.07 | 82 | 1015.6 |
| 20260904011545 | 86 | 115 | 1.0 | 4.0 | 0.00 | 0.85 | 0.07 | 82 | 1015.5 |
| 20260904011323 | 86 | 129 | 0.0 | 2.0 | 0.00 | 0.85 | 0.07 | 82 | 1015.5 |
| 20260904010819 | 86 | 122 | 0.0 | 2.0 | 0.00 | 0.85 | 0.07 | 82 | 1015.4 |
| 20260904010317 | 86 | 113 | 0.0 | 4.0 | 0.00 | 0.85 | 0.07 | 82 | 1015.4 |
| 20260904010038 | 86 | 138 | 2.0 | 6.0 | 0.00 | 0.85 | 0.07 | 82 | 1015.2 |
| 20260904005816 | 86 | 122 | 3.0 | 6.0 | 0.00 | 0.85 | 0.07 | 82 | 1015.3 |
| 20260904005333 | 86 | 125 | 3.0 | 6.0 | 0.00 | 0.85 | 0.07 | 82 | 1015.3 |
| 20260904004849 | 86 | 124 | 3.0 | 6.0 | 0.00 | 0.85 | 0.07 | 82 | 1015.3 |
| 20260904004550 | 86 | 135 | 3.0 | 5.0 | 0.00 | 0.85 | 0.07 | 82 | 1015.2 |
| 20260904004325 | 86 | 108 | 2.0 | 5.0 | 0.00 | 0.85 | 0.07 | 82 | 1015.2 |
| 20260904003823 | 86 | 125 | 3.0 | 5.0 | 0.00 | 0.85 | 0.07 | 82 | 1015.1 |
| 20260904003322 | 86 | 121 | 3.0 | 4.0 | 0.00 | 0.85 | 0.07 | 82 | 1015.0 |
| 20260904003034 | 86 | 136 | 1.0 | 4.0 | 0.00 | 0.85 | 0.07 | 82 | 1014.9 |
| 20260904002839 | 87 | 137 | 2.0 | 6.0 | 0.00 | 0.85 | 0.07 | 82 | 1015.0 |
| 20260904002334 | 87 | 131 | 2.0 | 6.0 | 0.00 | 0.85 | 0.07 | 82 | 1015.0 |
| 20260904001851 | 87 | 128 | 3.0 | 6.0 | 0.00 | 0.85 | 0.07 | 82 | 1014.9 |
| 20260904001541 | 86 | 121 | 3.0 | 5.0 | 0.00 | 0.85 | 0.07 | 82 | 1014.9 |
| 20260904001346 | 87 | 158 | 3.0 | 6.0 | 0.00 | 0.85 | 0.07 | 82 | 1015.0 |
| 20260904000824 | 87 | 125 | 2.0 | 6.0 | 0.00 | 0.85 | 0.07 | 82 | 1015.0 |
| 20260904000340 | 87 | 148 | 3.0 | 5.0 | 0.00 | 0.85 | 0.07 | 82 | 1014.9 |
| 20260904000052 | 86 | 125 | 2.0 | 5.0 | 0.00 | 0.85 | 0.07 | 82 | 1014.8 |
| 20260903235816 | 87 | 128 | 2.0 | 5.0 | 0.00 | 0.85 | 0.07 | 82 | 1015.0 |
| 20260903235334 | 87 | 111 | 1.0 | 4.0 | 0.00 | 0.85 | 0.07 | 82 | 1014.9 |
| 20260903234830 | 87 | 143 | 1.0 | 5.0 | 0.00 | 0.85 | 0.07 | 82 | 1014.9 |
| 20260903234508 | 87 | 137 | 2.0 | 5.0 | 0.00 | 0.85 | 0.07 | 82 | 1014.8 |
| 20260903234328 | 87 | 139 | 3.0 | 5.0 | 0.00 | 0.85 | 0.07 | 82 | 1014.8 |
| 20260903233847 | 87 | 127 | 2.0 | 5.0 | 0.00 | 0.85 | 0.07 | 82 | 1014.9 |
| 20260903233322 | 87 | 116 | 3.0 | 5.0 | 0.00 | 0.85 | 0.07 | 82 | 1014.9 |
| 20260903233027 | 87 | 132 | 0.0 | 6.0 | 0.00 | 0.85 | 0.07 | 82 | 1014.7 |
| 20260903232820 | 87 | 94 | 1.0 | 6.0 | 0.00 | 0.85 | 0.07 | 82 | 1014.7 |
| 20260903231826 | 87 | 128 | 3.0 | 6.0 | 0.00 | 0.85 | 0.07 | 82 | 1014.5 |
| 20260903231528 | 87 | 155 | 2.0 | 6.0 | 0.00 | 0.85 | 0.07 | 82 | 1014.4 |
| 20260903231324 | 87 | 110 | 4.0 | 6.0 | 0.00 | 0.85 | 0.07 | 82 | 1014.6 |
| 20260903230821 | 87 | 150 | 2.0 | 6.0 | 0.00 | 0.85 | 0.07 | 82 | 1014.5 |
| 20260903230338 | 86 | 125 | 2.0 | 4.0 | 0.00 | 0.85 | 0.07 | 82 | 1014.5 |
| 20260903230021 | 86 | 342 | 0.0 | 0.0 | 0.00 | 0.85 | 0.07 | 83 | 1014.6 |
| 20260903225855 | 86 | 342 | 0.0 | 0.0 | 0.00 | 0.85 | 0.07 | 83 | 1014.8 |
| 20260903225331 | 86 | 342 | 0.0 | 0.0 | 0.00 | 0.85 | 0.07 | 82 | 1014.8 |
| 20260903224848 | 87 | 342 | 0.0 | 0.0 | 0.00 | 0.85 | 0.07 | 82 | 1014.8 |
| 20260903224515 | 86 | 342 | 0.0 | 0.0 | 0.00 | 0.85 | 0.07 | 83 | 1014.8 |
| 20260903224325 | 87 | 342 | 0.0 | 0.0 | 0.00 | 0.85 | 0.07 | 83 | 1015.0 |
| 20260903223843 | 87 | 342 | 0.0 | 0.0 | 0.00 | 0.85 | 0.07 | 82 | 1014.9 |
| 20260903223320 | 87 | 342 | 0.0 | 0.0 | 0.00 | 0.85 | 0.07 | 83 | 1014.8 |
| 20260903223040 | 86 | 342 | 0.0 | 0.0 | 0.00 | 0.85 | 0.07 | 83 | 1014.7 |
| 20260903222820 | 86 | 342 | 0.0 | 1.0 | 0.00 | 0.85 | 0.07 | 82 | 1014.7 |
| 20260903222338 | 86 | 342 | 0.0 | 2.0 | 0.00 | 0.85 | 0.07 | 82 | 1014.7 |
| 20260903221816 | 86 | 342 | 1.0 | 2.0 | 0.00 | 0.85 | 0.07 | 82 | 1014.6 |
| 20260903221558 | 86 | 356 | 0.0 | 2.0 | 0.00 | 0.85 | 0.07 | 82 | 1014.5 |
| 20260903221332 | 86 | 2 | 0.0 | 1.0 | 0.00 | 0.85 | 0.07 | 82 | 1014.6 |
| 20260903220830 | 86 | 339 | 0.0 | 0.0 | 0.00 | 0.85 | 0.07 | 82 | 1014.5 |
| 20260903220326 | 86 | 339 | 0.0 | 0.0 | 0.00 | 0.85 | 0.07 | 83 | 1014.4 |
| 20260903220053 | 86 | 340 | 0.0 | 0.0 | 0.00 | 0.85 | 0.07 | 82 | 1014.3 |
| 20260903215823 | 86 | 339 | 0.0 | 0.0 | 0.00 | 0.85 | 0.07 | 83 | 1014.3 |
| 20260903215320 | 86 | 339 | 0.0 | 0.0 | 0.00 | 0.85 | 0.07 | 82 | 1014.2 |
| 20260903214541 | 85 | 339 | 0.0 | 2.0 | 0.00 | 0.85 | 0.07 | 82 | 1014.1 |
| 20260903214326 | 86 | 339 | 0.0 | 4.0 | 0.00 | 0.85 | 0.07 | 82 | 1014.0 |
| 20260903213823 | 85 | 339 | 1.0 | 4.0 | 0.00 | 0.85 | 0.07 | 82 | 1014.0 |
| 20260903213319 | 86 | 54 | 2.0 | 3.0 | 0.00 | 0.85 | 0.07 | 82 | 1014.0 |
| 20260903213016 | 86 | 346 | 1.0 | 4.0 | 0.00 | 0.85 | 0.07 | 82 | 1013.9 |
| 20260903212837 | 87 | 25 | 1.0 | 5.0 | 0.00 | 0.85 | 0.07 | 82 | 1014.0 |
| 20260903211815 | 88 | 357 | 4.0 | 8.0 | 0.00 | 0.85 | 0.07 | 80 | 1013.8 |
| 20260903211533 | 89 | 346 | 3.0 | 8.0 | 0.00 | 0.85 | 0.07 | 79 | 1013.6 |
| 20260903211331 | 90 | 356 | 4.0 | 8.0 | 0.00 | 0.85 | 0.07 | 78 | 1013.8 |
| 20260903210827 | 90 | 128 | 0.0 | 1.0 | 0.00 | 0.85 | 0.07 | 77 | 1013.7 |
| 20260903210344 | 91 | 129 | 0.0 | 2.0 | 0.00 | 0.85 | 0.07 | 77 | 1013.8 |
| 20260903210108 | 90 | 129 | 0.0 | 5.0 | 0.00 | 0.85 | 0.07 | 76 | 1013.6 |
| 20260903205819 | 90 | 129 | 1.0 | 5.0 | 0.00 | 0.85 | 0.07 | 76 | 1013.9 |
| 20260903205315 | 91 | 124 | 2.0 | 7.0 | 0.00 | 0.85 | 0.07 | 74 | 1014.0 |
| 20260903204833 | 91 | 159 | 2.0 | 8.0 | 0.00 | 0.85 | 0.07 | 76 | 1014.1 |
| 20260903204604 | 90 | 148 | 0.0 | 8.0 | 0.00 | 0.85 | 0.07 | 75 | 1014.1 |
| 20260903204329 | 91 | 124 | 4.0 | 8.0 | 0.00 | 0.85 | 0.07 | 75 | 1014.2 |
| 20260903203825 | 91 | 131 | 3.0 | 6.0 | 0.00 | 0.85 | 0.07 | 76 | 1014.1 |
| 20260903203342 | 91 | 146 | 2.0 | 8.0 | 0.00 | 0.85 | 0.07 | 76 | 1013.8 |
| 20260903203009 | 91 | 162 | 1.0 | 8.0 | 0.00 | 0.85 | 0.07 | 76 | 1013.5 |
| 20260903202818 | 91 | 139 | 2.0 | 8.0 | 0.00 | 0.85 | 0.07 | 77 | 1013.6 |
| 20260903202316 | 91 | 127 | 3.0 | 8.0 | 0.00 | 0.85 | 0.07 | 77 | 1013.5 |
| 20260903201814 | 92 | 143 | 4.0 | 8.0 | 0.00 | 0.85 | 0.07 | 76 | 1013.5 |
| 20260903201551 | 91 | 174 | 3.0 | 7.0 | 0.00 | 0.85 | 0.07 | 77 | 1013.4 |
| 20260903201331 | 92 | 176 | 4.0 | 7.0 | 0.00 | 0.85 | 0.07 | 76 | 1013.7 |
| 20260903200825 | 92 | 81 | 2.0 | 9.0 | 0.00 | 0.85 | 0.07 | 78 | 1013.8 |
| 20260903200342 | 91 | 147 | 4.0 | 9.0 | 0.00 | 0.85 | 0.07 | 77 | 1013.9 |
| 20260903200011 | 91 | 172 | 3.0 | 10.0 | 0.00 | 0.85 | 0.07 | 78 | 1013.8 |
| 20260903195818 | 91 | 199 | 4.0 | 10.0 | 0.00 | 0.85 | 0.07 | 78 | 1013.9 |
| 20260903195335 | 91 | 174 | 4.0 | 10.0 | 0.00 | 0.85 | 0.07 | 78 | 1013.8 |
| 20260903194853 | 91 | 127 | 4.0 | 10.0 | 0.00 | 0.85 | 0.07 | 78 | 1013.6 |
| 20260903194529 | 91 | 144 | 3.0 | 8.0 | 0.00 | 0.85 | 0.07 | 78 | 1013.5 |
| 20260903194329 | 91 | 227 | 3.0 | 9.0 | 0.00 | 0.85 | 0.07 | 79 | 1013.8 |
| 20260903193826 | 91 | 113 | 3.0 | 9.0 | 0.00 | 0.85 | 0.07 | 79 | 1013.9 |
| 20260903193322 | 91 | 91 | 2.0 | 5.0 | 0.00 | 0.85 | 0.07 | 80 | 1014.1 |
| 20260903193017 | 90 | 148 | 1.0 | 9.0 | 0.00 | 0.85 | 0.07 | 80 | 1013.9 |
| 20260903192819 | 90 | 129 | 1.0 | 9.0 | 0.00 | 0.85 | 0.07 | 80 | 1014.0 |
| 20260903192316 | 90 | 156 | 4.0 | 10.0 | 0.00 | 0.85 | 0.07 | 79 | 1014.0 |
| 20260903191815 | 90 | 130 | 7.0 | 10.0 | 0.00 | 0.85 | 0.07 | 78 | 1014.1 |
| 20260903191509 | 90 | 171 | 3.0 | 10.0 | 0.00 | 0.85 | 0.07 | 79 | 1013.9 |
| 20260903191331 | 91 | 151 | 4.0 | 10.0 | 0.00 | 0.85 | 0.07 | 79 | 1014.0 |
| 20260903190828 | 90 | 160 | 6.0 | 10.0 | 0.00 | 0.85 | 0.07 | 79 | 1014.0 |
| 20260903190321 | 90 | 125 | 3.0 | 9.0 | 0.00 | 0.85 | 0.07 | 79 | 1013.9 |
| 20260903190043 | 90 | 122 | 4.0 | 9.0 | 0.00 | 0.85 | 0.07 | 79 | 1014.0 |
| 20260903185838 | 91 | 98 | 5.0 | 9.0 | 0.00 | 0.85 | 0.07 | 78 | 1014.1 |
| 20260903185355 | 92 | 108 | 5.0 | 9.0 | 0.00 | 0.85 | 0.07 | 79 | 1014.2 |
| 20260903184826 | 91 | 122 | 4.0 | 11.0 | 0.00 | 0.85 | 0.07 | 79 | 1014.2 |
| 20260903184551 | 91 | 153 | 5.0 | 11.0 | 0.00 | 0.85 | 0.07 | 78 | 1014.1 |
| 20260903184322 | 91 | 119 | 6.0 | 10.0 | 0.00 | 0.85 | 0.07 | 79 | 1014.1 |
| 20260903183819 | 91 | 128 | 4.0 | 11.0 | 0.00 | 0.85 | 0.07 | 79 | 1014.1 |
| 20260903183318 | 90 | 139 | 5.0 | 11.0 | 0.00 | 0.85 | 0.07 | 80 | 1014.1 |
| 20260903183038 | 90 | 61 | 5.0 | 11.0 | 0.00 | 0.85 | 0.07 | 79 | 1014.0 |
| 20260903182350 | 90 | 136 | 4.0 | 9.0 | 0.00 | 0.85 | 0.07 | 79 | 1014.0 |
| 20260903181825 | 91 | 133 | 6.0 | 9.0 | 0.00 | 0.85 | 0.07 | 77 | 1014.2 |
| 20260903181548 | 90 | 142 | 2.0 | 7.0 | 0.00 | 0.85 | 0.07 | 78 | 1014.2 |
| 20260903181323 | 91 | 134 | 2.0 | 7.0 | 0.00 | 0.85 | 0.07 | 79 | 1014.3 |
| 20260903180820 | 91 | 141 | 2.0 | 4.0 | 0.00 | 0.85 | 0.07 | 79 | 1014.2 |
| 20260903180317 | 91 | 81 | 2.0 | 8.0 | 0.00 | 0.85 | 0.07 | 78 | 1014.2 |
| 20260903180036 | 90 | 144 | 3.0 | 8.0 | 0.00 | 0.85 | 0.07 | 78 | 1014.1 |
| 20260903175835 | 91 | 147 | 5.0 | 8.0 | 0.00 | 0.85 | 0.07 | 78 | 1014.3 |
| 20260903175353 | 91 | 127 | 1.0 | 5.0 | 0.00 | 0.85 | 0.07 | 79 | 1014.5 |
| 20260903174828 | 91 | 147 | 2.0 | 6.0 | 0.00 | 0.85 | 0.07 | 79 | 1014.6 |
| 20260903174555 | 90 | 125 | 1.0 | 6.0 | 0.00 | 0.85 | 0.07 | 79 | 1014.6 |
| 20260903174324 | 91 | 136 | 3.0 | 6.0 | 0.00 | 0.85 | 0.07 | 79 | 1014.7 |
| 20260903173822 | 91 | 138 | 3.0 | 6.0 | 0.00 | 0.85 | 0.07 | 79 | 1014.8 |
| 20260903173340 | 91 | 134 | 2.0 | 8.0 | 0.00 | 0.85 | 0.07 | 80 | 1015.0 |
| 20260903173017 | 90 | 149 | 3.0 | 8.0 | 0.00 | 0.85 | 0.07 | 80 | 1014.8 |
| 20260903172836 | 91 | 120 | 4.0 | 8.0 | 0.00 | 0.85 | 0.07 | 80 | 1014.9 |
| 20260903172353 | 91 | 96 | 4.0 | 6.0 | 0.00 | 0.85 | 0.07 | 79 | 1015.1 |
| 20260903171828 | 91 | 140 | 2.0 | 7.0 | 0.00 | 0.85 | 0.07 | 80 | 1015.1 |
| 20260903171514 | 90 | 138 | 4.0 | 8.0 | 0.00 | 0.85 | 0.07 | 80 | 1015.1 |
| 20260903171345 | 90 | 130 | 4.0 | 8.0 | 0.00 | 0.85 | 0.07 | 81 | 1015.3 |
| 20260903170822 | 90 | 126 | 4.0 | 10.0 | 0.00 | 0.85 | 0.07 | 81 | 1015.5 |
| 20260903170318 | 90 | 133 | 4.0 | 10.0 | 0.00 | 0.85 | 0.07 | 81 | 1015.4 |
| 20260903170035 | 89 | 101 | 5.0 | 10.0 | 0.00 | 0.85 | 0.07 | 81 | 1015.4 |
| 20260903165815 | 90 | 142 | 6.0 | 9.0 | 0.00 | 0.85 | 0.07 | 81 | 1015.6 |
| 20260903165327 | 90 | 120 | 6.0 | 9.0 | 0.00 | 0.85 | 0.07 | 79 | 1015.5 |
| 20260903164825 | 90 | 132 | 3.0 | 8.0 | 0.00 | 0.85 | 0.07 | 81 | 1015.5 |
| 20260903164519 | 90 | 78 | 3.0 | 10.0 | 0.00 | 0.85 | 0.07 | 81 | 1015.4 |
| 20260903164343 | 90 | 132 | 4.0 | 10.0 | 0.00 | 0.85 | 0.07 | 81 | 1015.6 |
| 20260903163820 | 90 | 131 | 7.0 | 10.0 | 0.00 | 0.85 | 0.07 | 80 | 1015.7 |
| 20260903163337 | 91 | 117 | 7.0 | 10.0 | 0.00 | 0.85 | 0.07 | 79 | 1015.8 |
| 20260903163037 | 92 | 124 | 3.0 | 8.0 | 0.00 | 0.85 | 0.07 | 78 | 1015.8 |
| 20260903162854 | 92 | 117 | 2.0 | 6.0 | 0.00 | 0.85 | 0.07 | 76 | 1016.0 |
| 20260903162330 | 93 | 150 | 1.0 | 3.0 | 0.00 | 0.85 | 0.07 | 77 | 1016.0 |
| 20260903161826 | 92 | 215 | 0.0 | 3.0 | 0.00 | 0.85 | 0.07 | 78 | 1016.0 |
| 20260903161600 | 91 | 181 | 0.0 | 3.0 | 0.00 | 0.85 | 0.07 | 77 | 1015.9 |
| 20260903161501 | 91 | 155 | 0.0 | 1.0 | 0.00 | 0.85 | 0.07 | 78 | 1016.0 |
| 20260903161324 | 92 | 307 | 0.0 | 1.0 | 0.00 | 0.85 | 0.07 | 78 | 1016.1 |
| 20260903160842 | 92 | 308 | 0.0 | 4.0 | 0.00 | 0.85 | 0.07 | 78 | 1016.2 |
| 20260903160317 | 92 | 133 | 1.0 | 4.0 | 0.00 | 0.85 | 0.07 | 78 | 1016.2 |
| 20260903160050 | 91 | 102 | 1.0 | 5.0 | 0.00 | 0.85 | 0.07 | 79 | 1016.0 |
| 20260903155834 | 91 | 150 | 1.0 | 5.0 | 0.00 | 0.85 | 0.07 | 79 | 1016.1 |
| 20260903155351 | 91 | 107 | 2.0 | 5.0 | 0.00 | 0.85 | 0.07 | 79 | 1016.1 |
| 20260903154829 | 91 | 200 | 1.0 | 3.0 | 0.00 | 0.85 | 0.07 | 80 | 1016.2 |
| 20260903154547 | 91 | 167 | 0.0 | 3.0 | 0.00 | 0.85 | 0.07 | 80 | 1016.1 |
| 20260903154324 | 91 | 120 | 1.0 | 3.0 | 0.00 | 0.85 | 0.07 | 79 | 1016.2 |
| 20260903153823 | 90 | 138 | 1.0 | 3.0 | 0.00 | 0.85 | 0.07 | 79 | 1016.1 |
| 20260903153320 | 90 | 108 | 1.0 | 4.0 | 0.00 | 0.85 | 0.07 | 79 | 1016.2 |
| 20260903153027 | 90 | 164 | 0.0 | 4.0 | 0.00 | 0.85 | 0.07 | 80 | 1016.2 |
| 20260903152817 | 90 | 219 | 1.0 | 4.0 | 0.00 | 0.85 | 0.07 | 80 | 1016.3 |
| 20260903152317 | 90 | 131 | 0.0 | 5.0 | 0.00 | 0.85 | 0.07 | 80 | 1016.2 |
| 20260903151833 | 89 | 151 | 1.0 | 2.0 | 0.00 | 0.85 | 0.07 | 82 | 1016.2 |
| 20260903151513 | 89 | 282 | 0.0 | 0.0 | 0.00 | 0.85 | 0.07 | 82 | 1016.0 |
| 20260903151330 | 89 | 259 | 0.0 | 0.0 | 0.00 | 0.85 | 0.07 | 82 | 1016.0 |
| 20260903150826 | 89 | 133 | 0.0 | 5.0 | 0.00 | 0.85 | 0.07 | 82 | 1016.0 |
| 20260903150325 | 89 | 132 | 2.0 | 5.0 | 0.00 | 0.85 | 0.07 | 82 | 1016.1 |
| 20260903150035 | 89 | 139 | 0.0 | 5.0 | 0.00 | 0.85 | 0.07 | 82 | 1015.9 |
| 20260903145842 | 89 | 139 | 1.0 | 6.0 | 0.00 | 0.85 | 0.07 | 82 | 1016.0 |
| 20260903145317 | 88 | 154 | 2.0 | 6.0 | 0.00 | 0.85 | 0.07 | 82 | 1016.0 |
| 20260903144816 | 89 | 136 | 3.0 | 6.0 | 0.00 | 0.85 | 0.07 | 82 | 1016.0 |
| 20260903144557 | 89 | 155 | 2.0 | 6.0 | 0.00 | 0.85 | 0.07 | 82 | 1015.9 |
| 20260903144332 | 90 | 138 | 2.0 | 4.0 | 0.00 | 0.85 | 0.07 | 82 | 1016.0 |
| 20260903143829 | 90 | 167 | 0.0 | 5.0 | 0.00 | 0.85 | 0.07 | 82 | 1016.0 |
| 20260903143326 | 90 | 123 | 1.0 | 4.0 | 0.00 | 0.85 | 0.07 | 83 | 1015.9 |
| 20260903143039 | 89 | 136 | 1.0 | 5.0 | 0.00 | 0.85 | 0.07 | 83 | 1015.8 |
| 20260903142842 | 89 | 150 | 2.0 | 5.0 | 0.00 | 0.85 | 0.07 | 83 | 1015.8 |
| 20260903142319 | 89 | 155 | 1.0 | 5.0 | 0.00 | 0.85 | 0.07 | 82 | 1015.9 |
| 20260903141817 | 89 | 235 | 1.0 | 4.0 | 0.00 | 0.85 | 0.07 | 83 | 1016.0 |
| 20260903141508 | 88 | 151 | 0.0 | 4.0 | 0.00 | 0.85 | 0.07 | 83 | 1015.8 |
| 20260903141316 | 89 | 285 | 1.0 | 4.0 | 0.00 | 0.85 | 0.07 | 83 | 1016.0 |
| 20260903140832 | 89 | 293 | 1.0 | 3.0 | 0.00 | 0.85 | 0.07 | 83 | 1015.9 |
| 20260903140329 | 89 | 128 | 0.0 | 1.0 | 0.00 | 0.85 | 0.07 | 84 | 1015.8 |
| 20260903140058 | 88 | 131 | 0.0 | 1.0 | 0.00 | 0.85 | 0.07 | 84 | 1015.7 |
| 20260903135827 | 88 | 131 | 0.0 | 3.0 | 0.00 | 0.85 | 0.07 | 85 | 1015.8 |
| 20260903135323 | 87 | 120 | 0.0 | 4.0 | 0.00 | 0.85 | 0.07 | 85 | 1015.8 |
| 20260903134820 | 87 | 103 | 2.0 | 5.0 | 0.00 | 0.85 | 0.07 | 85 | 1015.8 |
| 20260903134537 | 86 | 108 | 2.0 | 5.0 | 0.00 | 0.85 | 0.07 | 85 | 1015.6 |
| 20260903134334 | 87 | 125 | 3.0 | 5.0 | 0.00 | 0.85 | 0.07 | 85 | 1015.8 |
| 20260903133830 | 86 | 120 | 2.0 | 5.0 | 0.00 | 0.85 | 0.07 | 85 | 1015.6 |
| 20260903133328 | 87 | 120 | 2.0 | 5.0 | 0.00 | 0.85 | 0.07 | 84 | 1015.6 |
| 20260903133101 | 87 | 148 | 1.0 | 5.0 | 0.00 | 0.85 | 0.07 | 85 | 1015.4 |
| 20260903132825 | 87 | 122 | 1.0 | 5.0 | 0.00 | 0.85 | 0.07 | 86 | 1015.4 |
| 20260903132323 | 87 | 115 | 0.0 | 1.0 | 0.00 | 0.85 | 0.07 | 86 | 1015.3 |
| 20260903131839 | 87 | 142 | 0.0 | 1.0 | 0.00 | 0.85 | 0.07 | 86 | 1015.3 |
| 20260903131517 | 86 | 122 | 0.0 | 0.0 | 0.00 | 0.85 | 0.07 | 87 | 1015.2 |
| 20260903131314 | 86 | 133 | 0.0 | 0.0 | 0.00 | 0.85 | 0.07 | 88 | 1015.3 |
| 20260903130831 | 86 | 130 | 0.0 | 0.0 | 0.00 | 0.85 | 0.07 | 89 | 1015.4 |
| 20260903130326 | 86 | 108 | 0.0 | 0.0 | 0.00 | 0.85 | 0.07 | 90 | 1015.4 |
| 20260903130004 | 85 | 21 | 0.0 | 0.0 | 0.00 | 0.85 | 0.07 | 92 | 1015.4 |
| 20260903125822 | 86 | 21 | 0.0 | 0.0 | 0.00 | 0.85 | 0.07 | 93 | 1015.6 |
| 20260903125320 | 86 | 15 | 0.0 | 0.0 | 0.00 | 0.85 | 0.07 | 95 | 1015.6 |
| 20260903124837 | 84 | 15 | 0.0 | 0.0 | 0.00 | 0.85 | 0.07 | 95 | 1015.7 |
| 20260903124522 | 83 | 15 | 0.0 | 0.0 | 0.00 | 0.85 | 0.07 | 95 | 1015.6 |
| 20260903124331 | 83 | 15 | 0.0 | 0.0 | 0.00 | 0.85 | 0.07 | 95 | 1015.8 |
| 20260903123827 | 82 | 15 | 0.0 | 0.0 | 0.00 | 0.85 | 0.07 | 95 | 1015.8 |
| 20260903123324 | 81 | 15 | 0.0 | 0.0 | 0.00 | 0.85 | 0.07 | 95 | 1015.6 |
| 20260903123006 | 80 | 15 | 0.0 | 0.0 | 0.00 | 0.85 | 0.07 | 95 | 1015.5 |
| 20260903122820 | 80 | 15 | 0.0 | 0.0 | 0.00 | 0.85 | 0.07 | 95 | 1015.6 |
| 20260903122317 | 80 | 15 | 0.0 | 0.0 | 0.00 | 0.85 | 0.07 | 95 | 1015.6 |
| 20260903121813 | 80 | 15 | 0.0 | 0.0 | 0.00 | 0.85 | 0.07 | 95 | 1015.5 |
| 20260903121523 | 79 | 15 | 0.0 | 0.0 | 0.00 | 0.85 | 0.07 | 95 | 1015.4 |
| 20260903121330 | 79 | 15 | 0.0 | 0.0 | 0.00 | 0.85 | 0.07 | 95 | 1015.5 |
| 20260903120849 | 79 | 15 | 0.0 | 0.0 | 0.00 | 0.85 | 0.07 | 95 | 1015.5 |
| 20260903120345 | 78 | 15 | 0.0 | 0.0 | 0.00 | 0.85 | 0.07 | 95 | 1015.5 |
| 20260903120021 | 78 | 15 | 0.0 | 0.0 | 0.00 | 0.85 | 0.07 | 95 | 1015.3 |
| 20260903115820 | 78 | 15 | 0.0 | 0.0 | 0.00 | 0.85 | 0.07 | 95 | 1015.4 |
| 20260903115319 | 78 | 15 | 0.0 | 0.0 | 0.00 | 0.85 | 0.07 | 95 | 1015.4 |
| 20260903114816 | 78 | 15 | 0.0 | 0.0 | 0.00 | 0.85 | 0.07 | 95 | 1015.4 |
| 20260903114509 | 77 | 15 | 0.0 | 0.0 | 0.00 | 0.85 | 0.07 | 95 | 1015.2 |
| 20260903114334 | 78 | 15 | 0.0 | 0.0 | 0.00 | 0.85 | 0.07 | 95 | 1015.3 |
| 20260903113830 | 77 | 15 | 0.0 | 0.0 | 0.00 | 0.85 | 0.07 | 95 | 1015.3 |
| 20260903113329 | 77 | 15 | 0.0 | 0.0 | 0.00 | 0.85 | 0.07 | 95 | 1015.2 |
| 20260903113034 | 77 | 15 | 0.0 | 0.0 | 0.00 | 0.85 | 0.07 | 95 | 1015.1 |
| 20260903112848 | 77 | 15 | 0.0 | 0.0 | 0.00 | 0.85 | 0.07 | 95 | 1015.2 |
| 20260903112324 | 77 | 15 | 0.0 | 0.0 | 0.00 | 0.85 | 0.07 | 95 | 1015.1 |
| 20260903111822 | 77 | 15 | 0.0 | 0.0 | 0.00 | 0.85 | 0.07 | 95 | 1015.0 |
| 20260903111552 | 76 | 48 | 0.0 | 0.0 | 0.00 | 0.85 | 0.07 | 95 | 1015.0 |
| 20260903111321 | 77 | 48 | 0.0 | 0.0 | 0.00 | 0.85 | 0.07 | 95 | 1015.1 |
| 20260903110818 | 77 | 48 | 0.0 | 0.0 | 0.00 | 0.85 | 0.07 | 95 | 1014.9 |
| 20260903110315 | 77 | 48 | 0.0 | 0.0 | 0.00 | 0.85 | 0.07 | 95 | 1015.0 |
| 20260903110047 | 76 | 48 | 0.0 | 0.0 | 0.00 | 0.85 | 0.07 | 95 | 1014.8 |
| 20260903105829 | 77 | 48 | 0.0 | 0.0 | 0.00 | 0.85 | 0.07 | 95 | 1014.8 |
| 20260903105325 | 77 | 48 | 0.0 | 0.0 | 0.00 | 0.85 | 0.07 | 95 | 1014.7 |
| 20260903104822 | 77 | 48 | 0.0 | 0.0 | 0.00 | 0.85 | 0.07 | 95 | 1014.5 |
| 20260903104533 | 76 | 48 | 0.0 | 0.0 | 0.00 | 0.85 | 0.07 | 95 | 1014.4 |
| 20260903104339 | 77 | 48 | 0.0 | 0.0 | 0.00 | 0.85 | 0.07 | 95 | 1014.4 |
| 20260903103838 | 77 | 48 | 0.0 | 0.0 | 0.00 | 0.85 | 0.07 | 95 | 1014.2 |
| 20260903103336 | 77 | 48 | 0.0 | 0.0 | 0.00 | 0.85 | 0.07 | 95 | 1014.3 |
| 20260903103014 | 76 | 48 | 0.0 | 0.0 | 0.00 | 0.85 | 0.07 | 95 | 1014.1 |
| 20260903102834 | 76 | 48 | 0.0 | 0.0 | 0.00 | 0.85 | 0.07 | 94 | 1014.2 |
| 20260903101823 | 76 | 48 | 0.0 | 0.0 | 0.00 | 0.85 | 0.07 | 94 | 1014.0 |
| 20260903101515 | 76 | 48 | 0.0 | 0.0 | 0.00 | 0.85 | 0.07 | 94 | 1014.0 |
| 20260903101322 | 77 | 48 | 0.0 | 0.0 | 0.00 | 0.85 | 0.07 | 94 | 1014.1 |
| 20260903100819 | 77 | 48 | 0.0 | 0.0 | 0.00 | 0.85 | 0.07 | 95 | 1014.1 |
| 20260903100337 | 77 | 48 | 0.0 | 0.0 | 0.00 | 0.85 | 0.07 | 95 | 1013.9 |
| 20260903100035 | 76 | 48 | 0.0 | 0.0 | 0.00 | 0.85 | 0.07 | 95 | 1013.8 |
| 20260903095832 | 77 | 48 | 0.0 | 0.0 | 0.00 | 0.85 | 0.07 | 94 | 1013.9 |
| 20260903095327 | 77 | 48 | 0.0 | 0.0 | 0.00 | 0.85 | 0.07 | 94 | 1013.9 |
| 20260903094825 | 77 | 48 | 0.0 | 0.0 | 0.00 | 0.85 | 0.07 | 94 | 1013.8 |
| 20260903094524 | 76 | 48 | 0.0 | 0.0 | 0.00 | 0.85 | 0.07 | 94 | 1013.8 |
| 20260903094322 | 77 | 48 | 0.0 | 0.0 | 0.00 | 0.85 | 0.07 | 94 | 1013.9 |
| 20260903093818 | 77 | 48 | 0.0 | 0.0 | 0.00 | 0.85 | 0.07 | 94 | 1013.9 |
| 20260903093315 | 77 | 48 | 0.0 | 0.0 | 0.00 | 0.85 | 0.07 | 95 | 1013.8 |
| 20260903093020 | 77 | 48 | 0.0 | 0.0 | 0.00 | 0.85 | 0.07 | 95 | 1013.8 |
| 20260903092832 | 77 | 48 | 0.0 | 0.0 | 0.00 | 0.85 | 0.07 | 95 | 1013.9 |
| 20260903092348 | 77 | 47 | 0.0 | 0.0 | 0.00 | 0.85 | 0.07 | 94 | 1013.8 |
| 20260903091823 | 77 | 48 | 0.0 | 0.0 | 0.00 | 0.85 | 0.07 | 95 | 1013.8 |
| 20260903091536 | 76 | 48 | 0.0 | 0.0 | 0.00 | 0.85 | 0.07 | 94 | 1013.7 |
| 20260903091319 | 77 | 48 | 0.0 | 0.0 | 0.00 | 0.85 | 0.07 | 94 | 1013.9 |
| 20260903090817 | 77 | 48 | 0.0 | 0.0 | 0.00 | 0.85 | 0.07 | 94 | 1013.8 |
| 20260903090315 | 77 | 48 | 0.0 | 0.0 | 0.00 | 0.85 | 0.07 | 94 | 1013.8 |
| 20260903090030 | 76 | 48 | 0.0 | 0.0 | 0.00 | 0.85 | 0.07 | 94 | 1013.7 |
| 20260903085833 | 77 | 48 | 0.0 | 0.0 | 0.00 | 0.85 | 0.07 | 94 | 1013.8 |
| 20260903085331 | 77 | 48 | 0.0 | 0.0 | 0.00 | 0.85 | 0.07 | 94 | 1013.8 |
| 20260903084828 | 77 | 48 | 0.0 | 0.0 | 0.00 | 0.85 | 0.07 | 94 | 1013.8 |
| 20260903084512 | 76 | 48 | 0.0 | 0.0 | 0.00 | 0.85 | 0.07 | 94 | 1013.7 |
| 20260903084342 | 77 | 48 | 0.0 | 0.0 | 0.00 | 0.85 | 0.07 | 94 | 1013.9 |
| 20260903083817 | 76 | 48 | 0.0 | 0.0 | 0.00 | 0.85 | 0.07 | 94 | 1013.9 |
| 20260903083332 | 76 | 48 | 0.0 | 0.0 | 0.00 | 0.85 | 0.07 | 94 | 1013.9 |
| 20260903083045 | 76 | 48 | 0.0 | 0.0 | 0.00 | 0.85 | 0.07 | 94 | 1013.8 |
| 20260903082827 | 76 | 48 | 0.0 | 0.0 | 0.00 | 0.85 | 0.07 | 94 | 1014.0 |
| 20260903082324 | 76 | 48 | 0.0 | 0.0 | 0.00 | 0.85 | 0.07 | 94 | 1013.9 |
| 20260903081821 | 76 | 48 | 0.0 | 0.0 | 0.00 | 0.85 | 0.07 | 94 | 1013.9 |
| 20260903081534 | 76 | 48 | 0.0 | 0.0 | 0.00 | 0.85 | 0.07 | 94 | 1013.8 |
| 20260903081316 | 76 | 48 | 0.0 | 1.0 | 0.00 | 0.85 | 0.07 | 94 | 1013.8 |
| 20260903080834 | 76 | 49 | 0.0 | 1.0 | 0.00 | 0.85 | 0.07 | 94 | 1013.8 |
| 20260903080330 | 76 | 114 | 0.0 | 0.0 | 0.00 | 0.85 | 0.07 | 94 | 1013.9 |
| 20260903080019 | 76 | 114 | 0.0 | 0.0 | 0.00 | 0.85 | 0.07 | 94 | 1013.8 |
| 20260903075848 | 76 | 114 | 0.0 | 0.0 | 0.00 | 0.85 | 0.07 | 94 | 1014.0 |
| 20260903075323 | 76 | 114 | 0.0 | 0.0 | 0.00 | 0.85 | 0.07 | 94 | 1013.9 |
| 20260903074820 | 76 | 114 | 0.0 | 0.0 | 0.00 | 0.85 | 0.07 | 94 | 1013.9 |
| 20260903074516 | 76 | 114 | 0.0 | 0.0 | 0.00 | 0.85 | 0.07 | 94 | 1013.9 |
| 20260903074317 | 76 | 114 | 0.0 | 0.0 | 0.00 | 0.85 | 0.07 | 94 | 1014.0 |
| 20260903073834 | 77 | 115 | 0.0 | 0.0 | 0.00 | 0.85 | 0.07 | 94 | 1013.9 |
| 20260903073329 | 76 | 114 | 0.0 | 0.0 | 0.00 | 0.85 | 0.07 | 94 | 1014.0 |
| 20260903073012 | 76 | 114 | 0.0 | 0.0 | 0.00 | 0.85 | 0.07 | 94 | 1013.9 |
| 20260903072826 | 76 | 114 | 0.0 | 0.0 | 0.00 | 0.85 | 0.07 | 94 | 1014.0 |
| 20260903072323 | 76 | 114 | 0.0 | 0.0 | 0.00 | 0.85 | 0.07 | 94 | 1014.1 |
| 20260903071822 | 76 | 114 | 0.0 | 0.0 | 0.00 | 0.85 | 0.07 | 94 | 1014.1 |
| 20260903071550 | 76 | 114 | 0.0 | 0.0 | 0.00 | 0.85 | 0.07 | 94 | 1014.0 |
| 20260903071321 | 76 | 115 | 0.0 | 0.0 | 0.00 | 0.85 | 0.07 | 94 | 1014.1 |
| 20260903070817 | 76 | 115 | 0.0 | 0.0 | 0.00 | 0.85 | 0.07 | 94 | 1014.4 |
| 20260903070314 | 76 | 115 | 0.0 | 0.0 | 0.00 | 0.85 | 0.07 | 94 | 1014.4 |
| 20260903070030 | 76 | 114 | 0.0 | 0.0 | 0.00 | 0.85 | 0.07 | 94 | 1014.3 |
| 20260903065822 | 77 | 115 | 0.0 | 0.0 | 0.00 | 0.85 | 0.07 | 94 | 1014.3 |
| 20260903065320 | 77 | 114 | 0.0 | 1.0 | 0.00 | 0.85 | 0.07 | 94 | 1014.4 |
| 20260903064818 | 77 | 115 | 0.0 | 0.0 | 0.00 | 0.85 | 0.07 | 94 | 1014.3 |
| 20260903064520 | 76 | 114 | 0.0 | 0.0 | 0.00 | 0.85 | 0.07 | 94 | 1014.1 |
| 20260903064334 | 77 | 114 | 0.0 | 0.0 | 0.00 | 0.85 | 0.07 | 94 | 1014.2 |
| 20260903063851 | 77 | 114 | 0.0 | 0.0 | 0.00 | 0.85 | 0.07 | 94 | 1014.2 |
| 20260903063326 | 77 | 114 | 0.0 | 1.0 | 0.00 | 0.85 | 0.07 | 94 | 1014.2 |
| 20260903063043 | 76 | 115 | 0.0 | 1.0 | 0.00 | 0.85 | 0.07 | 94 | 1014.2 |
| 20260903062822 | 77 | 118 | 0.0 | 1.0 | 0.00 | 0.85 | 0.07 | 94 | 1014.2 |
| 20260903062318 | 77 | 118 | 0.0 | 0.0 | 0.00 | 0.85 | 0.07 | 94 | 1014.1 |
| 20260903061837 | 77 | 118 | 0.0 | 0.0 | 0.00 | 0.85 | 0.07 | 94 | 1014.1 |
| 20260903061540 | 76 | 118 | 0.0 | 0.0 | 0.00 | 0.85 | 0.07 | 94 | 1014.0 |
| 20260903061354 | 77 | 118 | 0.0 | 0.0 | 0.00 | 0.85 | 0.07 | 94 | 1014.1 |
| 20260903060830 | 77 | 118 | 0.0 | 0.0 | 0.00 | 0.85 | 0.07 | 94 | 1014.1 |
| 20260903060347 | 77 | 118 | 0.0 | 1.0 | 0.00 | 0.85 | 0.07 | 94 | 1014.2 |
| 20260903060029 | 76 | 118 | 0.0 | 1.0 | 0.00 | 0.85 | 0.07 | 94 | 1014.1 |
| 20260903055822 | 77 | 118 | 0.0 | 1.0 | 0.00 | 0.85 | 0.07 | 94 | 1014.3 |
| 20260903055320 | 77 | 118 | 0.0 | 0.0 | 0.00 | 0.85 | 0.07 | 94 | 1014.5 |
| 20260903054816 | 76 | 118 | 0.0 | 0.0 | 0.00 | 0.85 | 0.07 | 94 | 1014.6 |
| 20260903054511 | 76 | 118 | 0.0 | 1.0 | 0.00 | 0.85 | 0.07 | 94 | 1014.6 |
| 20260903054333 | 76 | 118 | 0.0 | 1.0 | 0.00 | 0.85 | 0.07 | 94 | 1014.7 |
| 20260903053830 | 76 | 118 | 0.0 | 2.0 | 0.00 | 0.85 | 0.07 | 94 | 1014.8 |
| 20260903053326 | 77 | 118 | 0.0 | 2.0 | 0.00 | 0.85 | 0.07 | 94 | 1014.9 |
| 20260903053055 | 76 | 118 | 0.0 | 2.0 | 0.01 | 0.85 | 0.07 | 94 | 1014.9 |
| 20260903052822 | 77 | 128 | 0.0 | 2.0 | 0.01 | 0.85 | 0.07 | 94 | 1015.0 |
| 20260903052319 | 77 | 127 | 0.0 | 1.0 | 0.01 | 0.85 | 0.07 | 94 | 1015.3 |
| 20260903051815 | 77 | 127 | 0.0 | 1.0 | 0.01 | 0.85 | 0.07 | 94 | 1015.4 |
| 20260903051540 | 76 | 120 | 0.0 | 1.0 | 0.02 | 0.85 | 0.07 | 94 | 1015.4 |
| 20260903051353 | 77 | 108 | 0.0 | 1.0 | 0.03 | 0.85 | 0.07 | 94 | 1015.4 |
| 20260903050827 | 77 | 124 | 0.0 | 0.0 | 0.04 | 0.85 | 0.07 | 94 | 1015.5 |
| 20260903050343 | 77 | 124 | 0.0 | 0.0 | 0.06 | 0.85 | 0.07 | 94 | 1015.4 |
| 20260903050038 | 76 | 124 | 0.0 | 0.0 | 0.07 | 0.85 | 0.07 | 94 | 1015.3 |
| 20260903045840 | 77 | 160 | 0.0 | 0.0 | 0.08 | 0.85 | 0.07 | 94 | 1015.4 |
| 20260903045355 | 77 | 160 | 0.0 | 1.0 | 0.11 | 0.85 | 0.07 | 93 | 1015.6 |
| 20260903044832 | 76 | 347 | 0.0 | 1.0 | 0.21 | 0.85 | 0.07 | 93 | 1015.8 |
| 20260903044506 | 76 | 347 | 0.0 | 0.0 | 0.26 | 0.85 | 0.07 | 93 | 1015.7 |
| 20260903044328 | 76 | 347 | 0.0 | 0.0 | 0.27 | 0.85 | 0.07 | 93 | 1015.9 |
| 20260903043824 | 77 | 347 | 0.0 | 0.0 | 0.29 | 0.85 | 0.07 | 93 | 1015.9 |
| 20260903043319 | 77 | 347 | 0.0 | 3.0 | 0.30 | 0.85 | 0.07 | 93 | 1016.1 |
| 20260903043044 | 76 | 347 | 0.0 | 3.0 | 0.28 | 0.84 | 0.06 | 93 | 1016.0 |
| 20260903042837 | 77 | 347 | 0.0 | 3.0 | 0.30 | 0.84 | 0.06 | 93 | 1016.2 |
| 20260903042352 | 77 | 145 | 0.0 | 0.0 | 0.39 | 0.84 | 0.06 | 93 | 1016.3 |
| 20260903041826 | 77 | 145 | 0.0 | 1.0 | 0.72 | 0.83 | 0.05 | 93 | 1016.3 |
| 20260903041513 | 76 | 145 | 0.0 | 1.0 | 0.81 | 0.83 | 0.05 | 93 | 1016.2 |
| 20260903041324 | 77 | 157 | 0.0 | 1.0 | 0.80 | 0.82 | 0.04 | 93 | 1016.3 |
| 20260903040821 | 76 | 155 | 0.0 | 0.0 | 0.80 | 0.81 | 0.03 | 93 | 1016.4 |
| 20260903040338 | 77 | 156 | 0.0 | 0.0 | 0.79 | 0.79 | 0.01 | 93 | 1016.5 |
| 20260903040050 | 76 | 156 | 0.0 | 0.0 | 0.78 | 0.78 | 0.00 | 93 | 1016.4 |
| 20260903035830 | 77 | 155 | 0.0 | 2.0 | 0.77 | 0.77 | 0.77 | 93 | 1016.5 |
| 20260903035326 | 77 | 158 | 0.0 | 2.0 | 0.72 | 0.72 | 0.72 | 93 | 1016.5 |
| 20260903034823 | 77 | 117 | 1.0 | 2.0 | 0.62 | 0.62 | 0.62 | 93 | 1016.7 |
| 20260903034546 | 77 | 145 | 0.0 | 2.0 | 0.59 | 0.59 | 0.59 | 93 | 1016.6 |
| 20260903034320 | 77 | 123 | 0.0 | 0.0 | 0.58 | 0.58 | 0.58 | 92 | 1016.5 |
| 20260903033838 | 77 | 108 | 0.0 | 0.0 | 0.56 | 0.56 | 0.56 | 92 | 1016.5 |
| 20260903033332 | 77 | 108 | 0.0 | 1.0 | 0.55 | 0.55 | 0.55 | 92 | 1016.7 |
| 20260903033116 | 77 | 108 | 0.0 | 1.0 | 0.55 | 0.55 | 0.55 | 92 | 1016.6 |
| 20260903032827 | 77 | 108 | 0.0 | 1.0 | 0.54 | 0.54 | 0.54 | 92 | 1016.8 |
| 20260903032325 | 78 | 293 | 0.0 | 0.0 | 0.43 | 0.43 | 0.43 | 91 | 1016.6 |
| 20260903031820 | 78 | 201 | 0.0 | 0.0 | 0.09 | 0.09 | 0.09 | 91 | 1016.9 |
| 20260903031545 | 77 | 310 | 0.0 | 0.0 | 0.02 | 0.02 | 0.02 | 91 | 1016.7 |
| 20260903031338 | 78 | 310 | 0.0 | 1.0 | 0.02 | 0.02 | 0.02 | 90 | 1016.7 |
| 20260903030814 | 78 | 26 | 0.0 | 1.0 | 0.01 | 0.01 | 0.01 | 90 | 1016.8 |
| 20260903030331 | 78 | 144 | 0.0 | 2.0 | 0.00 | 0.00 | 0.00 | 89 | 1016.7 |